This is the latest recevied weather packets stored in our database for station/object WK7G. If no packets are shown the sender has not sent any weather packets the latest 10 day(s).
| Time | Temp. | Humidity | Pressure | Rain* | Wind** | Luminosity | Snow |
|---|---|---|---|---|---|---|---|
| 1777833446 | 18.33° C | 31% | 1009.2 hPa | 0 mm | - | 952 W/m² | - |
| 1777833143 | 17.78° C | 30% | 1009.2 hPa | 0 mm | - | 989 W/m² | - |
| 1777832841 | 18.33° C | 27% | 1009.1 hPa | 0 mm | - | 527 W/m² | - |
| 1777832540 | 17.78° C | 29% | 1009.2 hPa | 0 mm | - | 919 W/m² | - |
| 1777832236 | 16.67° C | 27% | 1009.2 hPa | 0 mm | - | 924 W/m² | - |
| 1777831933 | 17.22° C | 26% | 1009.2 hPa | 0 mm | - | 899 W/m² | - |
| 1777831629 | 17.22° C | 26% | 1009.3 hPa | 0 mm | - | 910 W/m² | - |
| 1777829810 | 18.33° C | 29% | 1009.5 hPa | 0 mm | - | 895 W/m² | - |
| 1777829507 | 17.22° C | 32% | 1009.7 hPa | 0 mm | - | 881 W/m² | - |
| 1777829204 | 17.78° C | 28% | 1009.7 hPa | 0 mm | - | 880 W/m² | - |
| 1777828295 | 17.22° C | 27% | 1009.8 hPa | 0 mm | - | 889 W/m² | - |
| 1777827992 | 17.22° C | 28% | 1009.8 hPa | 0 mm | - | 880 W/m² | - |
| 1777826779 | 17.22° C | 30% | 1009.9 hPa | 0 mm | - | 839 W/m² | - |
| 1777826172 | 16.11° C | 30% | 1010 hPa | 0 mm | - | 811 W/m² | - |
| 1777825567 | 16.11° C | 34% | 1009.9 hPa | 0 mm | - | 808 W/m² | - |
| 1777824657 | 15.56° C | 29% | 1009.9 hPa | 0 mm | - | 688 W/m² | - |
| 1777824355 | 15.56° C | 31% | 1009.9 hPa | 0 mm | - | 704 W/m² | - |
| 1777824050 | 15.56° C | 30% | 1009.8 hPa | 0 mm | - | 691 W/m² | - |
| 1777823747 | 15.56° C | 28% | 1010 hPa | 0 mm | - | 663 W/m² | - |
| 1777822839 | 15° C | 36% | 1010 hPa | 0 mm | - | 547 W/m² | - |
| 1777821024 | 12.22° C | 49% | 1010.5 hPa | 0 mm | - | 423 W/m² | - |
| 1777820416 | 11.67° C | 46% | 1010.9 hPa | 0 mm | - | 366 W/m² | - |
| 1777817992 | 9.44° C | 51% | 1010.9 hPa | 0 mm | - | 251 W/m² | - |
| 1777813145 | 5° C | 54% | 1010.7 hPa | 0 mm | - | 28 W/m² | - |
| 1777812539 | 4.44° C | 57% | 1011.1 hPa | 0 mm | - | 24 W/m² | - |
* Rain latest hour (hover to see other rain measurements)
** Current wind speed in m/s (hover to see current wind gust speed)